Probability
10 9 7 7 7 7 5 3 1 1 4 7 6 5 5 4 3 4 4 1 0 0 0 0 0 0 0 0 0 0 0 0 0 0 0 0 0 0
9 8 7 7 8 8 7 4 2 0 3 6 5 4 4 3 3 3 3 1 0 0 0 0 0 0 0 0 0 0 0 0 0 0 0 0 0 0
6 6 6 6 7 8 7 5 3 1 2 4 4 3 3 3 3 3 3 2 1 0 0 0 0 0 0 0 0 0 0 0 0 0 0 0 0 0
4 4 4 4 5 5 5 4 2 1 1 1 2 3 3 3 3 3 2 2 1 0 0 0 0 0 0 0 0 0 0 0 0 0 0 0 0 0
3 3 3 3 3 3 3 1 1 1 0 0 1 1 2 3 3 3 2 1 1 0 0 0 0 0 0 0 0 0 0 0 0 0 0 0 0 0
3 3 3 2 2 2 1 0 0 0 0 0 0 1 1 2 2 2 1 1 0 0 0 0 0 0 0 0 0 0 0 0 0 0 0 0 0 0
3 2 1 1 1 1 0 0 0 0 0 0 0 0 0 0 1 2 2 1 0 0 0 0 0 0 0 0 0 0 0 0 0 0 0 0 0 0
2 1 0 0 0 0 0 0 0 0 0 0 0 0 0 0 0 1 2 1 0 0 0 0 0 0 0 1 0 0 0 0 0 0 0 0 0 0
2 1 0 0 0 0 0 0 0 0 0 0 0 0 0 0 0 1 1 0 0 1 0 0 0 0 0 0 0 0 0 0 0 0 0 0 0 0
3 2 1 0 0 0 0 0 0 0 0 0 0 0 0 0 0 0 0 0 0 0 0 0 0 0 0 0 0 0 0 0 0 0 0 0 0 0
3 2 1 0 0 0 0 0 0 0 0 0 0 0 0 0 0 0 0 0 0 0 0 0 0 0 0 0 0 0 0 0 0 0 0 0 0 0
2 2 1 0 0 0 0 0 0 0 0 0 0 0 0 0 0 0 0 0 0 0 0 0 0 0 0 0 0 0 0 0 0 0 0 0 0 0
1 1 0 0 0 0 0 0 0 0 0 0 0 0 0 0 0 0 0 0 0 0 0 0 0 0 0 0 0 0 0 0 0 0 0 0 0 0
0 0 0 0 0 0 0 0 0 0 0 0 0 0 0 0 0 0 0 0 0 0 0 0 0 0 0 0 0 0 0 0 0 0 0 0 0 0
0 0 0 0 0 0 0 0 0 0 0 0 0 0 0 0 0 0 0 0 0 0 0 0 0 0 1 1 0 0 0 0 0 0 0 0 0 0
0 0 0 0 0 0 0 0 0 0 0 0 0 0 0 0 0 0 0 0 0 0 0 0 0 1 1 1 1 1 0 0 0 0 0 1 1 1
0 0 0 0 0 0 0 0 0 0 0 0 0 0 0 0 0 0 0 0 0 0 0 0 1 2 1 1 1 1 0 0 0 1 1 1 0 0
0 0 0 0 0 0 0 0 1 1 1 0 0 0 0 0 0 0 0 0 0 0 0 0 0 1 0 0 0 0 0 0 0 1 2 1 0 0
0 0 0 0 0 0 0 0 1 1 1 0 0 0 0 0 0 0 0 0 0 0 0 0 0 0 0 0 0 0 0 0 0 1 1 0 0 0
0 0 0 0 0 0 0 0 0 0 0 0 0 0 0 0 0 0 0 0 0 0 0 0 0 0 0 0 0 0 0 0 0 0 0 0 0 0
0 0 0 0 0 0 0 0 0 0 0 0 0 0 0 0 0 0 0 0 0 0 0 0 0 0 0 0 0 0 0 0 0 0 0 0 0 0
0 0 0 0 0 0 0 0 0 0 0 0 0 0 0 0 0 0 0 0 0 0 0 0 0 0 0 0 0 0 0 0 0 0 0 0 1 1
0 0 0 0 0 0 0 0 0 0 0 0 0 0 0 0 0 0 0 0 0 0 0 0 0 0 0 0 0 0 0 1 1 1 0 0 1 0
Wind_Speed
4 5 4 3 4 4 4 5 5 6 5 4 3 3 3 3 2 4 4 4 5 6 6 6 6 6 6 6 6 6 6 6 7 7 7 8 8 9
4 4 4 4 4 4 4 5 5 6 6 3 3 2 2 3 2 4 3 5 6 6 6 6 6 6 6 6 6 6 7 7 7 7 8 8 8 8
3 4 4 5 5 4 4 4 5 6 7 5 3 2 3 4 2 3 3 3 3 6 6 6 6 6 6 6 6 6 7 7 8 9 9 9 9 8
3 4 4 4 5 4 3 4 4 5 6 6 4 3 3 3 3 3 2 2 2 4 6 6 6 6 6 6 6 6 7 7 8 9 9 9 9 9
3 3 4 4 4 3 4 4 4 4 4 4 4 3 3 3 3 3 3 2 3 4 7 8 8 7 7 7 7 7 7 8 8 9 9 9 9 9
3 3 3 3 3 4 3 4 4 4 4 4 3 3 3 3 3 3 3 3 3 3 3 4 6 9 9 8 8 8 8 8 8 8 9 9 9 9
2 2 2 2 3 3 4 4 4 3 3 3 3 3 3 2 3 3 3 3 3 3 3 4 5 6 8 10 10 9 9 9 9 9 9 9 9 10
2 2 2 1 1 2 3 4 5 4 4 3 3 3 3 3 3 3 3 3 3 2 3 3 4 5 5 5 8 10 10 9 9 9 9 9 10 10
2 3 3 2 1 2 2 4 3 3 4 5 4 4 4 3 3 4 3 4 4 3 3 4 4 4 5 4 9 10 10 10 10 9 9 9 10 10
3 3 3 3 2 3 3 3 2 2 3 4 3 4 4 3 4 4 4 5 5 4 4 5 4 4 4 3 9 11 11 11 11 11 10 10 10 10
3 3 3 3 1 3 4 4 3 2 2 2 3 4 5 5 5 5 5 5 5 4 4 4 4 4 4 4 7 12 12 12 12 12 12 11 11 10
2 2 1 2 1 3 4 4 4 4 3 3 4 6 7 7 8 7 6 5 5 4 3 4 4 4 4 4 4 6 8 11 13 13 13 12 12 9
3 2 1 3 2 4 5 4 4 5 6 5 4 4 5 5 6 6 6 6 6 5 3 4 5 5 5 3 3 4 5 5 8 9 13 14 14 12
3 2 2 1 3 5 5 4 5 7 6 5 4 4 4 4 4 4 5 6 7 8 7 6 6 5 6 5 4 4 4 5 5 6 7 11 13 14
3 3 3 5 6 6 6 7 7 6 5 4 4 4 4 4 5 5 6 7 9 9 9 9 9 7 7 6 6 5 4 5 6 6 6 7 8 8
3 2 6 8 8 6 5 6 6 3 4 5 5 4 4 4 5 5 5 5 6 7 8 9 9 9 8 8 7 6 6 5 5 6 6 6 7 7
3 3 3 3 3 3 3 3 3 3 4 4 5 5 5 5 5 5 5 6 6 6 5 5 7 8 9 8 7 7 6 6 5 5 6 7 7 7
4 3 3 4 4 4 4 4 3 4 4 5 5 5 5 6 5 5 5 6 6 6 6 5 4 5 6 7 8 8 6 6 5 5 6 7 7 6
4 3 3 3 4 4 4 4 5 4 4 5 6 6 5 6 6 6 5 5 6 6 6 6 6 6 7 7 6 8 7 5 5 5 6 6 6 6
3 3 3 3 4 4 4 4 5 5 5 5 6 6 6 6 6 6 6 6 6 6 7 6 6 6 7 7 6 5 8 7 6 6 6 5 5 4
3 4 4 4 4 4 4 5 5 5 5 5 5 6 6 6 6 7 7 6 7 8 8 7 5 6 6 6 7 6 6 8 7 6 6 6 6 6
4 4 4 5 5 4 4 5 5 5 5 5 5 5 5 6 7 8 7 8 7 7 8 7 5 6 7 7 8 7 6 5 7 9 9 8 6 6
3 4 5 4 4 4 4 5 6 5 5 6 6 6 7 7 7 7 7 8 8 8 8 7 6 6 6 7 7 6 7 6 5 5 6 8 9 9
Wind_Direction
259 260 266 263 263 260 261 263 266 271 269 257 247 233 252 260 232 252 239 189 203 211 215 216 220 222 216 210 211 209 212 215 220 219 217 215 215 215
272 275 277 275 271 258 254 259 257 267 274 273 274 277 277 277 242 263 252 180 201 206 211 215 217 217 215 214 213 213 212 212 216 218 216 216 215 213
283 284 283 282 277 273 264 264 262 261 266 275 272 270 266 271 264 268 264 241 203 191 200 206 209 214 217 216 215 216 216 217 218 218 218 219 216 210
287 290 291 285 282 278 273 272 272 270 267 274 280 271 267 267 267 263 264 260 241 179 194 204 208 213 215 215 215 218 220 220 221 220 220 220 217 212
290 290 291 291 293 297 288 282 277 275 270 269 278 282 272 267 264 255 249 245 243 199 194 201 206 211 213 215 216 217 217 218 218 217 218 220 218 214
310 307 303 303 309 313 299 292 288 285 275 265 266 270 268 264 261 254 249 232 240 234 220 211 202 206 210 212 215 217 215 215 216 215 215 216 214 212
314 317 330 338 329 310 307 305 295 280 277 273 268 265 264 266 272 275 267 256 243 244 243 228 214 217 204 207 211 212 212 213 213 212 211 212 213 212
308 320 309 231 246 256 287 294 298 292 294 287 277 275 276 273 275 271 269 266 261 224 247 249 233 234 231 223 191 194 206 213 215 213 208 206 206 206
291 293 303 352 289 284 240 233 250 260 270 284 287 285 281 283 280 272 270 273 272 262 255 263 250 249 245 215 176 187 200 208 212 212 210 208 208 208
282 280 281 286 318 309 288 288 285 270 260 259 278 283 289 295 281 271 274 270 264 248 237 260 254 251 252 229 179 193 203 210 213 213 213 213 212 211
285 284 280 276 359 307 277 280 290 286 226 231 275 286 296 286 281 273 265 262 264 254 229 249 258 261 255 236 193 193 206 211 213 214 213 212 212 212
286 263 222 245 291 294 270 278 288 301 305 266 236 235 240 236 231 246 264 267 273 267 236 245 255 253 255 237 215 194 207 209 211 213 212 210 205 215
305 308 33 133 243 279 276 275 285 292 286 278 264 255 248 240 233 233 244 259 268 265 249 240 258 252 253 248 228 215 217 215 206 208 210 209 204 213
284 309 31 72 291 279 267 263 267 269 265 268 270 270 270 266 260 255 251 256 261 266 273 269 268 268 267 260 252 231 222 226 226 222 213 195 204 215
303 340 302 273 269 257 233 241 249 252 264 273 279 279 282 283 277 261 248 243 248 250 251 249 252 260 263 265 263 252 244 236 229 229 222 210 209 207
255 242 228 241 247 256 250 235 241 262 281 282 283 283 279 272 265 265 265 256 253 247 236 237 241 248 255 257 261 259 249 240 234 231 229 226 221 218
323 277 267 258 254 252 260 273 275 264 258 270 277 278 275 274 273 273 272 269 264 265 256 237 229 230 244 255 259 258 254 246 237 229 230 238 235 233
280 276 294 301 300 304 304 298 288 287 291 288 283 282 282 283 283 279 273 274 276 275 273 267 252 241 240 235 232 251 255 252 249 234 235 241 240 235
249 273 292 305 306 303 302 303 307 308 302 295 290 286 281 282 281 278 274 274 277 281 280 275 266 257 259 261 234 217 242 255 258 253 243 240 245 244
259 285 296 300 302 308 311 314 317 312 299 292 290 290 287 286 287 284 277 276 278 276 273 266 263 263 266 276 280 252 223 238 245 251 255 252 246 239
316 316 315 316 319 320 317 311 310 308 304 298 295 296 295 289 284 284 284 278 273 274 273 267 257 247 259 262 261 256 242 220 231 241 250 254 254 248
330 325 325 325 323 322 317 307 305 307 306 300 301 301 299 292 289 288 288 284 277 274 278 279 265 249 251 255 260 261 260 249 227 226 235 247 255 254
320 317 317 320 321 317 311 309 310 316 320 317 314 309 305 299 294 291 290 290 292 292 288 287 283 270 266 263 264 264 259 257 252 237 228 219 223 238